Miscellaneous Local Product
Issued by NWS North Platte, NE

Home | Current Version | Previous Version | Text Only | Print | Product List | Glossary On
Versions: 1 2 3 4 5 6 7 8 9 10 11 12 13 14 15 16 17 18 19 20 21 22 23 24 25 26 27 28 29 30 31 32 33 34 35 36 37 38 39 40 41 42 43 44 45 46 47 48 49 50
000
AXUS43 KLBF 242110
MISLBF


WESTERN AND NORTH CENTRAL NEBRASKA HOURLY WEATHER ROUNDUP
NATIONAL WEATHER SERVICE NORTH PLATTE NE
400 PM CDT FRI OCT 24 2014

***STATIONS NOT REPORTING VARIABLES SUCH AS SKY/WEATHER OR
PRESSURE ARE PROVIDED BY THE NEBRASKA DEPARTMENT OF
ROADS...RAWS...AND APRS NETWORKS...AND ARE NOT UNDER
NATIONAL WEATHER SERVICE QUALITY CONTROL***

...OBSERVATIONS IN AND NEAR THE EASTERN PANHANDLE OF NEBRASKA...

CITY           SKY/WX    TMP DP  RH WIND       PRES   REMARKS
PINE RIDGE     SUNNY     77  34  21 CALM      30.00S
CHADRON        SUNNY     78  32  18 CALM      29.98F
ALLIANCE       MOSUNNY   80  35  19 W15       30.01F
SIDNEY         SUNNY     82  30  15 NW12G21   30.07S
WHITECLAY        N/A     76  33  21 W3          N/A
RUSHVILLE        N/A     81  20  10 NW10        N/A
CRESCENT LAKE    N/A     81  29  15 NW7G16      N/A
LISCO            N/A     85   6   5 W16         N/A
BIG SPRINGS      N/A     81  36  19 NW5         N/A
LEWELLEN         N/A     90  23   9 W13         N/A
$$

...OBSERVATIONS IN NORTH CENTRAL NEBRASKA...

CITY           SKY/WX    TMP DP  RH WIND       PRES   REMARKS
VALENTINE      SUNNY     81  33  17 NW5       29.95S
THEDFORD       SUNNY     82  34  17 N8        29.98R
AINSWORTH      MOSUNNY   76  32  20 CALM      29.97R
O`NEILL        PTSUNNY   76  36  23 CALM      29.95R
ORD            MOSUNNY   78  40  25 NE3       29.93F
BROKEN BOW     SUNNY     84  37  18 NW10      29.95S
BROWNLEE         N/A     84  28  13 NW8         N/A
SPRINGVIEW       N/A     78  38  23 SE3         N/A
BREWSTER         N/A     84  34  16 W5          N/A
ROSE             N/A     81  38  20 MISG        N/A
NEWPORT          N/A     78  27  15 CALM        N/A
SARGENT          N/A     81  38  21 CALM        N/A
COMSTOCK         N/A     86  35  16 S6          N/A
CHAMBERS         N/A     74  40  29 CALM        N/A
EWING            N/A     76  42  29 CALM        N/A
$$

...OBSERVATIONS IN SOUTHWEST NEBRASKA AND FAR NORTHEAST COLORADO...

CITY           SKY/WX    TMP DP  RH WIND       PRES   REMARKS
WRAY           FAIR      89  21   8 NW9G17    30.05S
HOLYOKE        FAIR      86  28  12 NW7       30.05S
IMPERIAL       SUNNY     84  31  14 N15       30.02F
OGALLALA       SUNNY     84  33  16 W10G18    30.01S
NORTH PLATTE   SUNNY     84  32  15 W12       29.97S
MCCOOK         SUNNY     88  32  13 W10G17    29.98F
LEXINGTON      SUNNY     84  32  15 W12       29.97R
PAXTON           N/A     80  40  24 W3          N/A
SUTHERLAND       N/A     88  29  12 W7          N/A
BRADY            N/A     82  37  20 MISG        N/A
GOTHENBURG       N/A     82  33  17 W7          N/A
CALLAWAY         N/A     83  39  20 NW9         N/A
$$

...SOME WEATHER OBSERVATIONS FROM AROUND THE REGION...

CITY           SKY/WX    TMP DP  RH WIND       PRES   REMARKS
DENVER         MOSUNNY   81  19  10 SE10      30.14F
LARAMIE        SUNNY     70  21  15 W17G28    30.23F
CHEYENNE       SUNNY     76  20  12 W22G28    30.17F
SCOTTSBLUFF    SUNNY     82 N/A N/A NW21G31   30.02F
RAPID CITY     SUNNY     70  38  31 N12       30.01R
PIERRE         SUNNY     78  31  17 NW10      29.91R
WINNER         FAIR      79  25  13 VRB3      29.93S
SIOUX FALLS    CLOUDY    75  38  26 NW10      29.88S
OMAHA          CLOUDY    75  58  55 CALM      29.90S
GRAND ISLAND   MOSUNNY   79  47  32 NW6       29.94
KANSAS CITY    PTSUNNY   74  64  71 SW13      29.95F
WICHITA        MOSUNNY   83  61  47 SW10      29.99F
HAYS           SUNNY     88  52  29 W7        29.97S
LIBERAL        SUNNY     88  43  20 S9        30.05S
GOODLAND       SUNNY     89  26  10 VRB3      30.05F
$$



USA.gov is the U.S. government's official web portal to all federal, state and local government web resources and services.